Time,TemperatureF,DewpointF,PressureIn,WindDirection,WindDirectionDegrees,WindSpeedMPH,WindSpeedGustMPH,Humidity,HourlyPrecipIn,Conditions,Clouds,dailyrainin,SoftwareType,DateUTC
2013-02-28 00:00:00,42.7,-99.9,30.23,ENE,67,1.6,5.4,-999,0.00,,,0.00,homebrew,2013-02-28 08:00:00,
2013-02-28 00:05:00,42.6,-99.9,30.22,ENE,71,2.3,3.7,-999,0.00,,,0.00,homebrew,2013-02-28 08:05:00,
2013-02-28 00:10:00,42.6,-99.9,30.22,ENE,70,0.4,4.4,-999,0.00,,,0.00,homebrew,2013-02-28 08:10:00,
2013-02-28 00:15:00,42.5,-99.9,30.22,NE,49,0.9,4.3,-999,0.00,,,0.00,homebrew,2013-02-28 08:15:00,
2013-02-28 00:20:00,42.5,-99.9,30.22,ENE,63,0.8,4.1,-999,0.00,,,0.00,homebrew,2013-02-28 08:20:00,
2013-02-28 00:25:00,42.5,-99.9,30.22,NE,36,0.6,3.7,-999,0.00,,,0.00,homebrew,2013-02-28 08:25:00,
2013-02-28 00:30:00,42.5,-99.9,30.23,ENE,70,0.7,4.2,-999,0.00,,,0.00,homebrew,2013-02-28 08:30:00,
2013-02-28 00:35:00,42.4,-99.9,30.22,ENE,67,1.3,5.0,-999,0.00,,,0.00,homebrew,2013-02-28 08:35:00,
2013-02-28 00:40:00,42.4,-99.9,30.23,ENE,73,0.5,5.2,-999,0.00,,,0.00,homebrew,2013-02-28 08:40:00,
2013-02-28 00:45:00,42.3,-99.9,30.22,NE,49,0.9,4.1,-999,0.00,,,0.00,homebrew,2013-02-28 08:45:00,
2013-02-28 00:50:00,42.4,-99.9,30.22,ENE,57,0.6,3.2,-999,0.01,,,0.01,homebrew,2013-02-28 08:50:00,
2013-02-28 01:00:00,42.4,-99.9,30.22,ENE,68,0.1,2.7,-999,0.01,,,0.01,homebrew,2013-02-28 09:00:00,
2013-02-28 01:05:00,42.4,-99.9,30.22,ESE,102,0.0,1.9,-999,0.01,,,0.01,homebrew,2013-02-28 09:05:00,
2013-02-28 01:15:00,42.4,-99.9,30.22,NE,45,0.3,3.7,-999,0.01,,,0.01,homebrew,2013-02-28 09:15:00,
2013-02-28 01:20:00,42.3,-99.9,30.21,NE,48,1.1,3.6,-999,0.02,,,0.02,homebrew,2013-02-28 09:20:00,
2013-02-28 01:25:00,42.3,-99.9,30.21,ENE,73,0.3,4.7,-999,0.02,,,0.02,homebrew,2013-02-28 09:25:00,
2013-02-28 01:30:00,42.3,-99.9,30.21,NE,49,1.0,6.5,-999,0.02,,,0.02,homebrew,2013-02-28 09:30:00,
2013-02-28 01:35:00,42.2,-99.9,30.21,SE,128,0.7,2.5,-999,0.02,,,0.02,homebrew,2013-02-28 09:35:00,
2013-02-28 01:40:00,42.2,-99.9,30.21,East,79,1.2,4.0,-999,0.02,,,0.02,homebrew,2013-02-28 09:40:00,
2013-02-28 01:45:00,42.1,-99.9,30.20,NE,51,1.6,5.8,-999,0.02,,,0.02,homebrew,2013-02-28 09:45:00,
2013-02-28 01:50:00,42.1,-99.9,30.20,ENE,58,1.1,3.5,-999,0.02,,,0.03,homebrew,2013-02-28 09:50:00,
2013-02-28 01:55:00,42.0,-99.9,30.20,East,97,0.8,6.0,-999,0.02,,,0.03,homebrew,2013-02-28 09:55:00,
2013-02-28 02:05:00,42.0,-99.9,30.20,NE,44,0.5,5.2,-999,0.02,,,0.03,homebrew,2013-02-28 10:05:00,
2013-02-28 02:10:00,41.9,-99.9,30.21,NE,49,0.3,4.3,-999,0.02,,,0.03,homebrew,2013-02-28 10:10:00,
2013-02-28 02:15:00,41.8,-99.9,30.21,NE,53,0.0,3.5,-999,0.02,,,0.03,homebrew,2013-02-28 10:15:00,
2013-02-28 02:20:00,41.8,-99.9,30.21,NE,53,0.0,0.0,-999,0.01,,,0.03,homebrew,2013-02-28 10:20:00,
2013-02-28 02:25:00,41.9,-99.9,30.20,NE,53,0.0,0.0,-999,0.01,,,0.03,homebrew,2013-02-28 10:25:00,
2013-02-28 02:30:00,41.9,-99.9,30.20,NE,53,0.0,0.0,-999,0.01,,,0.03,homebrew,2013-02-28 10:30:00,
2013-02-28 02:35:00,42.0,-99.9,30.20,NE,53,0.0,0.0,-999,0.01,,,0.03,homebrew,2013-02-28 10:35:00,
2013-02-28 02:40:00,42.0,-99.9,30.20,NE,53,0.0,0.0,-999,0.02,,,0.04,homebrew,2013-02-28 10:40:00,
2013-02-28 02:45:00,42.1,-99.9,30.20,NE,53,0.0,0.0,-999,0.02,,,0.04,homebrew,2013-02-28 10:45:00,
2013-02-28 02:50:00,42.1,-99.9,30.20,NE,53,0.0,0.0,-999,0.01,,,0.04,homebrew,2013-02-28 10:50:00,
2013-02-28 02:55:00,42.3,-99.9,30.20,NE,53,0.0,0.0,-999,0.01,,,0.04,homebrew,2013-02-28 10:55:00,
2013-02-28 03:00:00,42.3,-99.9,30.20,NE,53,0.0,0.0,-999,0.01,,,0.04,homebrew,2013-02-28 11:00:00,
2013-02-28 03:10:00,42.3,-99.9,30.19,NE,53,0.0,0.0,-999,0.01,,,0.04,homebrew,2013-02-28 11:10:00,
2013-02-28 03:15:00,42.3,-99.9,30.19,NE,53,0.0,0.0,-999,0.01,,,0.04,homebrew,2013-02-28 11:15:00,
2013-02-28 03:20:00,42.2,-99.9,30.19,NE,53,0.0,0.0,-999,0.01,,,0.04,homebrew,2013-02-28 11:20:00,
2013-02-28 03:25:00,42.2,-99.9,30.19,NE,53,0.0,0.0,-999,0.01,,,0.04,homebrew,2013-02-28 11:25:00,
2013-02-28 03:30:00,42.2,-99.9,30.19,NE,53,0.0,0.0,-999,0.01,,,0.04,homebrew,2013-02-28 11:30:00,
2013-02-28 03:35:00,42.2,-99.9,30.19,NE,53,0.0,0.0,-999,0.01,,,0.04,homebrew,2013-02-28 11:35:00,
2013-02-28 03:40:00,42.1,-99.9,30.19,NE,53,0.0,0.0,-999,0.00,,,0.04,homebrew,2013-02-28 11:40:00,
2013-02-28 03:45:00,42.1,-99.9,30.18,NE,53,0.0,0.0,-999,0.00,,,0.04,homebrew,2013-02-28 11:45:00,
2013-02-28 03:50:00,42.1,-99.9,30.18,NE,53,0.0,0.0,-999,0.01,,,0.05,homebrew,2013-02-28 11:50:00,
2013-02-28 03:55:00,42.1,-99.9,30.18,NE,53,0.0,0.0,-999,0.01,,,0.05,homebrew,2013-02-28 11:55:00,
2013-02-28 04:05:00,42.0,-99.9,30.18,North,354,0.0,1.1,-999,0.01,,,0.05,homebrew,2013-02-28 12:05:00,
2013-02-28 04:10:00,42.0,-99.9,30.18,North,354,0.0,0.0,-999,0.02,,,0.06,homebrew,2013-02-28 12:10:00,
2013-02-28 04:15:00,42.0,-99.9,30.19,North,354,0.0,0.0,-999,0.02,,,0.06,homebrew,2013-02-28 12:15:00,
2013-02-28 04:20:00,42.0,-99.9,30.18,North,354,0.0,0.0,-999,0.02,,,0.06,homebrew,2013-02-28 12:20:00,
2013-02-28 04:25:00,42.1,-99.9,30.18,North,354,0.0,0.0,-999,0.02,,,0.06,homebrew,2013-02-28 12:25:00,
2013-02-28 04:30:00,42.1,-99.9,30.18,North,354,0.0,0.0,-999,0.02,,,0.06,homebrew,2013-02-28 12:30:00,
2013-02-28 04:35:00,42.1,-99.9,30.18,WNW,286,0.1,0.0,-999,0.02,,,0.06,homebrew,2013-02-28 12:35:00,
2013-02-28 04:40:00,42.0,-99.9,30.18,NE,46,0.0,1.8,-999,0.03,,,0.07,homebrew,2013-02-28 12:40:00,
2013-02-28 04:45:00,42.0,-99.9,30.18,NE,46,0.0,0.0,-999,0.02,,,0.07,homebrew,2013-02-28 12:45:00,
2013-02-28 04:50:00,42.1,-99.9,30.18,NE,46,0.0,0.0,-999,0.03,,,0.08,homebrew,2013-02-28 12:50:00,
2013-02-28 04:55:00,42.0,-99.9,30.18,NE,46,0.0,0.0,-999,0.03,,,0.08,homebrew,2013-02-28 12:55:00,
2013-02-28 05:05:00,42.0,-99.9,30.18,NE,46,0.0,0.0,-999,0.03,,,0.08,homebrew,2013-02-28 13:05:00,
2013-02-28 05:15:00,42.0,-99.9,30.18,NE,46,0.0,0.0,-999,0.02,,,0.08,homebrew,2013-02-28 13:15:00,
2013-02-28 05:25:00,41.9,-99.9,30.17,NE,46,0.0,0.0,-999,0.02,,,0.08,homebrew,2013-02-28 13:25:00,
2013-02-28 05:30:00,41.9,-99.9,30.17,NE,46,0.0,0.0,-999,0.02,,,0.08,homebrew,2013-02-28 13:30:00,
2013-02-28 05:35:00,42.0,-99.9,30.18,NE,46,0.0,0.0,-999,0.02,,,0.08,homebrew,2013-02-28 13:35:00,
2013-02-28 05:40:00,42.1,-99.9,30.17,NE,46,0.0,0.0,-999,0.01,,,0.08,homebrew,2013-02-28 13:40:00,
2013-02-28 05:45:00,42.0,-99.9,30.17,NE,46,0.0,0.0,-999,0.01,,,0.08,homebrew,2013-02-28 13:45:00,
2013-02-28 05:50:00,41.8,-99.9,30.17,NE,46,0.0,0.0,-999,0.00,,,0.08,homebrew,2013-02-28 13:50:00,
2013-02-28 06:00:00,41.8,-99.9,30.17,NE,46,0.0,0.0,-999,0.00,,,0.08,homebrew,2013-02-28 14:00:00,
2013-02-28 06:05:00,41.8,-99.9,30.17,NE,46,0.0,0.0,-999,0.00,,,0.08,homebrew,2013-02-28 14:05:00,
2013-02-28 06:10:00,41.9,-99.9,30.17,NE,46,0.0,0.0,-999,0.00,,,0.08,homebrew,2013-02-28 14:10:00,
2013-02-28 06:15:00,41.8,-99.9,30.17,NE,46,0.0,0.0,-999,0.00,,,0.08,homebrew,2013-02-28 14:15:00,
2013-02-28 06:20:00,41.8,-99.9,30.17,NE,46,0.0,0.0,-999,0.00,,,0.08,homebrew,2013-02-28 14:20:00,
2013-02-28 06:25:00,41.8,-99.9,30.17,NE,46,0.0,0.0,-999,0.00,,,0.08,homebrew,2013-02-28 14:25:00,
2013-02-28 06:30:00,41.8,-99.9,30.17,NE,46,0.0,0.0,-999,0.00,,,0.08,homebrew,2013-02-28 14:30:00,
2013-02-28 06:35:00,41.8,-99.9,30.17,NE,46,0.0,0.0,-999,0.00,,,0.08,homebrew,2013-02-28 14:35:00,
2013-02-28 06:40:00,41.9,-99.9,30.17,NE,46,0.0,0.0,-999,0.00,,,0.08,homebrew,2013-02-28 14:40:00,
2013-02-28 06:45:00,41.9,-99.9,30.17,NE,46,0.0,0.0,-999,0.00,,,0.08,homebrew,2013-02-28 14:45:00,
2013-02-28 06:50:00,41.9,-99.9,30.17,NE,46,0.0,0.0,-999,0.00,,,0.08,homebrew,2013-02-28 14:50:00,
2013-02-28 07:00:00,41.8,-99.9,30.16,NE,46,0.0,0.0,-999,0.00,,,0.08,homebrew,2013-02-28 15:00:00,
2013-02-28 07:05:00,41.8,-99.9,30.17,NE,46,0.0,0.0,-999,0.00,,,0.08,homebrew,2013-02-28 15:05:00,
2013-02-28 07:10:00,41.9,-99.9,30.16,NE,46,0.0,0.0,-999,0.00,,,0.08,homebrew,2013-02-28 15:10:00,
2013-02-28 07:15:00,41.9,-99.9,30.16,NE,46,0.0,0.0,-999,0.00,,,0.08,homebrew,2013-02-28 15:15:00,
2013-02-28 07:20:00,41.9,-99.9,30.16,NE,46,0.0,0.0,-999,0.00,,,0.08,homebrew,2013-02-28 15:20:00,
2013-02-28 07:25:00,41.9,-99.9,30.15,NE,46,0.0,0.0,-999,0.00,,,0.08,homebrew,2013-02-28 15:25:00,
2013-02-28 07:30:00,42.0,-99.9,30.16,NE,46,0.0,0.0,-999,0.00,,,0.08,homebrew,2013-02-28 15:30:00,
2013-02-28 07:35:00,42.1,-99.9,30.15,NE,46,0.0,0.0,-999,0.00,,,0.08,homebrew,2013-02-28 15:35:00,
2013-02-28 07:45:00,42.0,-99.9,30.16,ENE,57,0.4,0.0,-999,0.00,,,0.08,homebrew,2013-02-28 15:45:00,
2013-02-28 07:50:00,42.1,-99.9,30.15,East,91,0.0,3.5,-999,0.00,,,0.08,homebrew,2013-02-28 15:50:00,
2013-02-28 07:55:00,42.1,-99.9,30.15,East,91,0.0,0.0,-999,0.00,,,0.08,homebrew,2013-02-28 15:55:00,
2013-02-28 08:05:00,42.3,-99.9,30.15,East,91,0.0,0.0,-999,0.01,,,0.09,homebrew,2013-02-28 16:05:00,
2013-02-28 08:10:00,42.4,-99.9,30.15,East,91,0.0,0.0,-999,0.01,,,0.09,homebrew,2013-02-28 16:10:00,
2013-02-28 08:20:00,42.6,-99.9,30.16,East,91,0.0,0.0,-999,0.01,,,0.09,homebrew,2013-02-28 16:20:00,
2013-02-28 08:25:00,42.6,-99.9,30.15,East,91,0.0,0.0,-999,0.02,,,0.10,homebrew,2013-02-28 16:25:00,
2013-02-28 08:35:00,42.9,-99.9,30.16,East,91,0.0,0.0,-999,0.02,,,0.10,homebrew,2013-02-28 16:35:00,
2013-02-28 08:40:00,42.9,-99.9,30.16,East,91,0.0,0.0,-999,0.02,,,0.10,homebrew,2013-02-28 16:40:00,
2013-02-28 08:45:00,42.8,-99.9,30.16,East,91,0.0,0.0,-999,0.03,,,0.11,homebrew,2013-02-28 16:45:00,
2013-02-28 08:50:00,42.9,-99.9,30.16,East,91,0.0,0.0,-999,0.03,,,0.11,homebrew,2013-02-28 16:50:00,
2013-02-28 08:55:00,43.0,-99.9,30.16,East,91,0.0,0.0,-999,0.03,,,0.11,homebrew,2013-02-28 16:55:00,
2013-02-28 09:00:00,43.0,-99.9,30.16,East,91,0.0,0.0,-999,0.03,,,0.11,homebrew,2013-02-28 17:00:00,
2013-02-28 09:10:00,43.2,-99.9,30.16,East,91,0.0,0.0,-999,0.03,,,0.12,homebrew,2013-02-28 17:10:00,
2013-02-28 09:15:00,43.3,-99.9,30.16,East,91,0.0,0.0,-999,0.03,,,0.12,homebrew,2013-02-28 17:15:00,
2013-02-28 09:25:00,43.5,-99.9,30.16,East,91,0.0,0.0,-999,0.03,,,0.13,homebrew,2013-02-28 17:25:00,
2013-02-28 09:30:00,43.6,-99.9,30.16,East,91,0.0,0.0,-999,0.04,,,0.14,homebrew,2013-02-28 17:30:00,
2013-02-28 09:35:00,43.9,-99.9,30.15,East,91,0.0,0.0,-999,0.04,,,0.14,homebrew,2013-02-28 17:35:00,
2013-02-28 09:40:00,44.2,-99.9,30.16,East,91,0.0,0.0,-999,0.04,,,0.14,homebrew,2013-02-28 17:40:00,
2013-02-28 09:45:00,44.3,-99.9,30.16,East,91,0.0,0.0,-999,0.03,,,0.14,homebrew,2013-02-28 17:45:00,
2013-02-28 09:50:00,44.5,-99.9,30.16,East,91,0.0,0.0,-999,0.04,,,0.15,homebrew,2013-02-28 17:50:00,
2013-02-28 09:55:00,44.7,-99.9,30.16,East,91,0.0,0.0,-999,0.04,,,0.15,homebrew,2013-02-28 17:55:00,
2013-02-28 10:00:00,44.9,-99.9,30.16,East,91,0.0,0.0,-999,0.04,,,0.15,homebrew,2013-02-28 18:00:00,
2013-02-28 10:05:00,45.2,-99.9,30.16,East,91,0.0,0.0,-999,0.03,,,0.15,homebrew,2013-02-28 18:05:00,
2013-02-28 10:15:00,44.9,-99.9,30.16,East,91,0.0,0.0,-999,0.03,,,0.15,homebrew,2013-02-28 18:15:00,
2013-02-28 10:20:00,45.3,-99.9,30.16,East,91,0.0,0.0,-999,0.02,,,0.15,homebrew,2013-02-28 18:20:00,
2013-02-28 10:30:00,45.0,-99.9,30.17,East,91,0.0,0.0,-999,0.02,,,0.16,homebrew,2013-02-28 18:30:00,
2013-02-28 10:35:00,45.1,-99.9,30.17,East,91,0.0,0.0,-999,0.02,,,0.16,homebrew,2013-02-28 18:35:00,
2013-02-28 10:40:00,45.3,-99.9,30.17,East,91,0.0,0.0,-999,0.02,,,0.16,homebrew,2013-02-28 18:40:00,
2013-02-28 10:45:00,45.5,-99.9,30.17,East,91,0.0,0.0,-999,0.02,,,0.16,homebrew,2013-02-28 18:45:00,
2013-02-28 10:50:00,45.5,-99.9,30.17,East,91,0.0,0.0,-999,0.01,,,0.16,homebrew,2013-02-28 18:50:00,
2013-02-28 10:55:00,45.4,-99.9,30.17,South,179,0.0,0.0,-999,0.01,,,0.16,homebrew,2013-02-28 18:55:00,
2013-02-28 11:05:00,45.7,-99.9,30.17,SSW,212,0.0,0.0,-999,0.02,,,0.17,homebrew,2013-02-28 19:05:00,
2013-02-28 11:15:00,45.9,-99.9,30.18,SSW,212,0.0,0.0,-999,0.02,,,0.17,homebrew,2013-02-28 19:15:00,
2013-02-28 11:20:00,45.9,-99.9,30.18,SSW,212,0.0,0.0,-999,0.01,,,0.17,homebrew,2013-02-28 19:20:00,
2013-02-28 11:25:00,46.1,-99.9,30.18,SSW,212,0.0,0.0,-999,0.01,,,0.17,homebrew,2013-02-28 19:25:00,
2013-02-28 11:30:00,46.3,-99.9,30.18,SSW,212,0.0,0.0,-999,0.01,,,0.17,homebrew,2013-02-28 19:30:00,
2013-02-28 11:40:00,46.6,-99.9,30.18,NNW,343,0.0,1.4,-999,0.01,,,0.17,homebrew,2013-02-28 19:40:00,
2013-02-28 11:45:00,46.7,-99.9,30.18,WNW,289,0.1,0.0,-999,0.01,,,0.17,homebrew,2013-02-28 19:45:00,
2013-02-28 11:50:00,46.8,-99.9,30.18,South,173,0.1,1.2,-999,0.01,,,0.17,homebrew,2013-02-28 19:50:00,
2013-02-28 12:00:00,47.0,-99.9,30.19,South,184,0.3,0.0,-999,0.01,,,0.17,homebrew,2013-02-28 20:00:00,
2013-02-28 12:10:00,47.0,-99.9,30.19,South,182,1.1,3.7,-999,0.00,,,0.17,homebrew,2013-02-28 20:10:00,
2013-02-28 12:15:00,46.9,-99.9,30.19,South,191,0.1,3.5,-999,0.00,,,0.17,homebrew,2013-02-28 20:15:00,
2013-02-28 12:20:00,46.9,-99.9,30.19,South,183,0.7,0.0,-999,0.00,,,0.17,homebrew,2013-02-28 20:20:00,
2013-02-28 12:25:00,46.9,-99.9,30.19,South,172,0.0,4.3,-999,0.00,,,0.17,homebrew,2013-02-28 20:25:00,
2013-02-28 12:30:00,46.9,-99.9,30.19,South,172,0.0,0.0,-999,0.00,,,0.17,homebrew,2013-02-28 20:30:00,
2013-02-28 12:40:00,47.0,-99.9,30.19,SSE,163,1.4,4.7,-999,0.00,,,0.17,homebrew,2013-02-28 20:40:00,
2013-02-28 12:50:00,47.0,-99.9,30.19,SSE,166,1.2,6.6,-999,0.00,,,0.17,homebrew,2013-02-28 20:50:00,
2013-02-28 12:55:00,47.0,-99.9,30.19,South,183,2.4,6.1,-999,0.00,,,0.17,homebrew,2013-02-28 20:55:00,
2013-02-28 13:00:00,47.0,-99.9,30.19,SSE,156,1.5,7.8,-999,0.00,,,0.17,homebrew,2013-02-28 21:00:00,
2013-02-28 13:05:00,47.1,-99.9,30.18,South,174,1.5,7.4,-999,0.00,,,0.17,homebrew,2013-02-28 21:05:00,
2013-02-28 13:10:00,47.2,-99.9,30.18,South,172,1.2,7.8,-999,0.00,,,0.17,homebrew,2013-02-28 21:10:00,
2013-02-28 13:15:00,47.4,-99.9,30.18,South,178,2.0,10.4,-999,0.00,,,0.17,homebrew,2013-02-28 21:15:00,
2013-02-28 13:20:00,47.5,-99.9,30.18,SSE,156,1.4,4.8,-999,0.00,,,0.17,homebrew,2013-02-28 21:20:00,
2013-02-28 13:25:00,47.8,-99.9,30.18,South,174,3.2,9.7,-999,0.00,,,0.17,homebrew,2013-02-28 21:25:00,
2013-02-28 13:30:00,47.9,-99.9,30.19,SSW,203,1.6,10.1,-999,0.00,,,0.17,homebrew,2013-02-28 21:30:00,
2013-02-28 13:35:00,48.1,-99.9,30.19,South,179,2.4,7.2,-999,0.00,,,0.17,homebrew,2013-02-28 21:35:00,
2013-02-28 13:40:00,48.2,-99.9,30.19,South,177,2.8,8.1,-999,0.00,,,0.17,homebrew,2013-02-28 21:40:00,
2013-02-28 13:45:00,48.4,-99.9,30.18,SE,143,2.8,8.9,-999,0.00,,,0.17,homebrew,2013-02-28 21:45:00,
2013-02-28 13:50:00,48.7,-99.9,30.19,South,189,2.1,10.6,-999,0.00,,,0.17,homebrew,2013-02-28 21:50:00,
2013-02-28 13:55:00,48.8,-99.9,30.19,South,169,2.1,8.7,-999,0.00,,,0.17,homebrew,2013-02-28 21:55:00,
2013-02-28 14:00:00,48.9,-99.9,30.20,South,180,2.0,7.3,-999,0.00,,,0.17,homebrew,2013-02-28 22:00:00,
2013-02-28 14:05:00,49.1,-99.9,30.20,SSW,210,0.6,4.2,-999,0.00,,,0.17,homebrew,2013-02-28 22:05:00,
2013-02-28 14:10:00,49.1,-99.9,30.20,SSE,166,1.3,3.3,-999,0.00,,,0.17,homebrew,2013-02-28 22:10:00,
2013-02-28 14:15:00,49.1,-99.9,30.20,SSE,150,1.6,6.5,-999,0.00,,,0.17,homebrew,2013-02-28 22:15:00,
2013-02-28 14:20:00,49.2,-99.9,30.21,SE,132,1.1,5.0,-999,0.00,,,0.17,homebrew,2013-02-28 22:20:00,
2013-02-28 14:25:00,49.4,-99.9,30.20,ESE,103,1.9,7.0,-999,0.00,,,0.17,homebrew,2013-02-28 22:25:00,
2013-02-28 14:30:00,49.3,-99.9,30.20,East,90,0.0,4.2,-999,0.00,,,0.17,homebrew,2013-02-28 22:30:00,
2013-02-28 14:35:00,49.4,-99.9,30.20,SE,145,1.8,7.0,-999,0.00,,,0.17,homebrew,2013-02-28 22:35:00,
2013-02-28 14:40:00,49.5,-99.9,30.21,SSE,164,1.6,7.9,-999,0.00,,,0.17,homebrew,2013-02-28 22:40:00,
2013-02-28 14:45:00,49.5,-99.9,30.21,South,177,1.8,6.6,-999,0.00,,,0.17,homebrew,2013-02-28 22:45:00,
2013-02-28 14:50:00,49.6,-99.9,30.22,South,172,1.5,8.8,-999,0.00,,,0.17,homebrew,2013-02-28 22:50:00,
2013-02-28 15:00:00,49.7,-99.9,30.22,South,174,1.0,5.9,-999,0.00,,,0.17,homebrew,2013-02-28 23:00:00,
2013-02-28 15:05:00,49.8,-99.9,30.22,South,185,1.1,4.4,-999,0.00,,,0.17,homebrew,2013-02-28 23:05:00,
2013-02-28 15:10:00,49.9,-99.9,30.23,SSE,153,1.2,6.7,-999,0.00,,,0.17,homebrew,2013-02-28 23:10:00,
2013-02-28 15:15:00,50.0,-99.9,30.23,SSE,148,1.3,6.4,-999,0.00,,,0.17,homebrew,2013-02-28 23:15:00,
2013-02-28 15:25:00,50.1,-99.9,30.23,SSW,210,0.7,4.2,-999,0.00,,,0.17,homebrew,2013-02-28 23:25:00,
2013-02-28 15:30:00,50.2,-99.9,30.23,South,177,2.3,6.2,-999,0.00,,,0.17,homebrew,2013-02-28 23:30:00,
2013-02-28 15:35:00,50.3,-99.9,30.23,South,183,1.9,5.7,-999,0.00,,,0.17,homebrew,2013-02-28 23:35:00,
2013-02-28 15:40:00,50.4,-99.9,30.23,South,176,2.0,5.2,-999,0.00,,,0.17,homebrew,2013-02-28 23:40:00,
2013-02-28 15:45:00,50.5,-99.9,30.23,South,169,1.1,5.8,-999,0.00,,,0.17,homebrew,2013-02-28 23:45:00,
2013-02-28 15:50:00,50.5,-99.9,30.22,SSW,194,2.8,6.3,-999,0.00,,,0.17,homebrew,2013-02-28 23:50:00,
2013-02-28 15:55:00,50.7,-99.9,30.23,South,184,2.8,8.0,-999,0.00,,,0.17,homebrew,2013-02-28 23:55:00,
2013-02-28 16:00:00,51.0,-99.9,30.23,SSE,164,2.0,7.1,-999,0.01,,,0.18,homebrew,2013-03-01 00:00:00,
2013-02-28 16:05:00,51.2,-99.9,30.23,SSW,200,2.5,7.0,-999,0.01,,,0.18,homebrew,2013-03-01 00:05:00,
2013-02-28 16:10:00,51.0,-99.9,30.23,SSW,197,2.8,7.8,-999,0.01,,,0.18,homebrew,2013-03-01 00:10:00,
2013-02-28 16:15:00,51.0,-99.9,30.23,SSW,193,3.5,7.3,-999,0.01,,,0.18,homebrew,2013-03-01 00:15:00,
2013-02-28 16:20:00,51.1,-99.9,30.23,South,182,3.1,9.9,-999,0.01,,,0.18,homebrew,2013-03-01 00:20:00,
2013-02-28 16:25:00,51.1,-99.9,30.23,SSW,193,2.3,11.1,-999,0.01,,,0.18,homebrew,2013-03-01 00:25:00,
2013-02-28 16:30:00,51.1,-99.9,30.23,SSW,198,3.7,6.9,-999,0.01,,,0.18,homebrew,2013-03-01 00:30:00,
2013-02-28 16:35:00,50.9,-99.9,30.23,SSW,199,4.4,10.7,-999,0.01,,,0.18,homebrew,2013-03-01 00:35:00,
2013-02-28 16:40:00,50.8,-99.9,30.23,SSW,196,2.7,13.4,-999,0.01,,,0.18,homebrew,2013-03-01 00:40:00,
2013-02-28 16:50:00,50.7,-99.9,30.23,SSW,201,4.1,8.5,-999,0.01,,,0.18,homebrew,2013-03-01 00:50:00,
2013-02-28 16:55:00,50.7,-99.9,30.23,South,191,3.7,7.6,-999,0.00,,,0.18,homebrew,2013-03-01 00:55:00,
2013-02-28 17:00:00,50.7,-99.9,30.22,South,187,2.8,9.8,-999,0.00,,,0.18,homebrew,2013-03-01 01:00:00,
2013-02-28 17:05:00,50.6,-99.9,30.23,SSW,201,3.0,11.8,-999,0.00,,,0.18,homebrew,2013-03-01 01:05:00,
2013-02-28 17:10:00,50.6,-99.9,30.22,South,191,3.2,10.3,-999,0.00,,,0.18,homebrew,2013-03-01 01:10:00,
2013-02-28 17:15:00,50.6,-99.9,30.22,SSW,201,3.8,8.2,-999,0.00,,,0.18,homebrew,2013-03-01 01:15:00,
2013-02-28 17:20:00,50.6,-99.9,30.22,SSW,210,2.0,15.0,-999,0.00,,,0.18,homebrew,2013-03-01 01:20:00,
2013-02-28 17:25:00,50.6,-99.9,30.22,SSW,196,3.3,6.5,-999,0.00,,,0.18,homebrew,2013-03-01 01:25:00,
2013-02-28 17:30:00,50.6,-99.9,30.22,SSW,207,2.5,9.2,-999,0.00,,,0.18,homebrew,2013-03-01 01:30:00,
2013-02-28 17:40:00,50.6,-99.9,30.21,South,186,3.6,10.6,-999,0.00,,,0.18,homebrew,2013-03-01 01:40:00,
2013-02-28 17:45:00,50.7,-99.9,30.21,SSW,206,5.0,13.2,-999,0.00,,,0.18,homebrew,2013-03-01 01:45:00,
2013-02-28 17:50:00,50.8,-99.9,30.21,SSW,198,4.2,9.8,-999,0.00,,,0.18,homebrew,2013-03-01 01:50:00,
2013-02-28 17:55:00,50.9,-99.9,30.22,SSW,204,4.6,14.9,-999,0.00,,,0.18,homebrew,2013-03-01 01:55:00,
2013-02-28 18:00:00,51.0,-99.9,30.22,South,191,3.9,11.5,-999,0.00,,,0.18,homebrew,2013-03-01 02:00:00,
2013-02-28 18:05:00,50.8,-99.9,30.22,SSW,201,3.9,10.6,-999,0.00,,,0.18,homebrew,2013-03-01 02:05:00,
2013-02-28 18:10:00,50.7,-99.9,30.23,SSW,199,3.9,8.5,-999,0.00,,,0.18,homebrew,2013-03-01 02:10:00,
2013-02-28 18:15:00,50.6,-99.9,30.23,SSW,205,4.9,8.3,-999,0.00,,,0.18,homebrew,2013-03-01 02:15:00,
2013-02-28 18:20:00,50.6,-99.9,30.23,SSW,200,3.0,10.1,-999,0.00,,,0.18,homebrew,2013-03-01 02:20:00,
2013-02-28 18:25:00,50.6,-99.9,30.23,SSW,195,3.3,10.7,-999,0.00,,,0.18,homebrew,2013-03-01 02:25:00,
2013-02-28 18:30:00,50.6,-99.9,30.23,SSW,198,3.5,10.9,-999,0.00,,,0.18,homebrew,2013-03-01 02:30:00,
2013-02-28 18:35:00,50.7,-99.9,30.23,SSW,201,3.4,11.1,-999,0.00,,,0.18,homebrew,2013-03-01 02:35:00,
2013-02-28 18:40:00,50.7,-99.9,30.24,SSW,198,3.2,13.7,-999,0.00,,,0.18,homebrew,2013-03-01 02:40:00,
2013-02-28 18:45:00,50.8,-99.9,30.24,SSW,196,1.6,9.4,-999,0.00,,,0.18,homebrew,2013-03-01 02:45:00,
2013-02-28 18:50:00,50.8,-99.9,30.24,South,187,2.1,6.2,-999,0.00,,,0.18,homebrew,2013-03-01 02:50:00,
2013-02-28 18:55:00,50.8,-99.9,30.24,South,189,1.4,10.3,-999,0.00,,,0.18,homebrew,2013-03-01 02:55:00,
2013-02-28 19:00:00,50.7,-99.9,30.24,SSW,199,2.2,7.9,-999,0.00,,,0.18,homebrew,2013-03-01 03:00:00,
2013-02-28 19:05:00,50.7,-99.9,30.24,SSW,196,3.1,8.9,-999,0.00,,,0.18,homebrew,2013-03-01 03:05:00,
2013-02-28 19:10:00,50.7,-99.9,30.25,South,191,2.8,8.1,-999,0.00,,,0.18,homebrew,2013-03-01 03:10:00,
2013-02-28 19:20:00,50.6,-99.9,30.25,South,187,3.7,10.2,-999,0.00,,,0.18,homebrew,2013-03-01 03:20:00,
2013-02-28 19:25:00,50.6,-99.9,30.25,SSW,200,2.7,8.5,-999,0.00,,,0.18,homebrew,2013-03-01 03:25:00,
2013-02-28 19:30:00,50.8,-99.9,30.26,South,184,1.9,5.9,-999,0.00,,,0.18,homebrew,2013-03-01 03:30:00,
2013-02-28 19:35:00,51.0,-99.9,30.26,SSW,202,3.0,7.4,-999,0.00,,,0.18,homebrew,2013-03-01 03:35:00,
2013-02-28 19:40:00,51.3,-99.9,30.26,South,190,2.2,8.3,-999,0.00,,,0.18,homebrew,2013-03-01 03:40:00,
2013-02-28 19:45:00,51.5,-99.9,30.26,SW,214,3.4,9.3,-999,0.00,,,0.18,homebrew,2013-03-01 03:45:00,
2013-02-28 19:50:00,51.7,-99.9,30.26,SSW,201,5.0,12.9,-999,0.00,,,0.18,homebrew,2013-03-01 03:50:00,
2013-02-28 19:55:00,51.8,-99.9,30.26,SSW,209,3.1,12.4,-999,0.00,,,0.18,homebrew,2013-03-01 03:55:00,
2013-02-28 20:00:00,51.7,-99.9,30.26,SSW,197,3.9,9.4,-999,0.00,,,0.18,homebrew,2013-03-01 04:00:00,
2013-02-28 20:05:00,51.7,-99.9,30.26,SSW,200,3.8,10.3,-999,0.00,,,0.18,homebrew,2013-03-01 04:05:00,
2013-02-28 20:10:00,51.7,-99.9,30.26,South,189,2.9,10.1,-999,0.00,,,0.18,homebrew,2013-03-01 04:10:00,
2013-02-28 20:15:00,51.7,-99.9,30.26,South,179,2.1,7.8,-999,0.00,,,0.18,homebrew,2013-03-01 04:15:00,
2013-02-28 20:20:00,51.6,-99.9,30.26,South,177,1.3,6.0,-999,0.00,,,0.18,homebrew,2013-03-01 04:20:00,
2013-02-28 20:25:00,51.4,-99.9,30.26,South,183,2.1,8.8,-999,0.00,,,0.18,homebrew,2013-03-01 04:25:00,
2013-02-28 20:30:00,51.3,-99.9,30.26,SSE,158,1.3,7.0,-999,0.00,,,0.18,homebrew,2013-03-01 04:30:00,
2013-02-28 20:35:00,51.2,-99.9,30.26,South,184,2.9,8.5,-999,0.00,,,0.18,homebrew,2013-03-01 04:35:00,
2013-02-28 20:40:00,51.2,-99.9,30.26,South,184,2.6,7.1,-999,0.00,,,0.18,homebrew,2013-03-01 04:40:00,
2013-02-28 20:45:00,51.3,-99.9,30.26,South,190,4.3,15.2,-999,0.00,,,0.18,homebrew,2013-03-01 04:45:00,
2013-02-28 20:50:00,51.6,-99.9,30.27,SSW,197,4.1,10.4,-999,0.00,,,0.18,homebrew,2013-03-01 04:50:00,
2013-02-28 20:55:00,51.8,-99.9,30.27,South,179,2.8,10.0,-999,0.00,,,0.18,homebrew,2013-03-01 04:55:00,
2013-02-28 21:00:00,52.0,-99.9,30.27,SSW,195,3.7,10.5,-999,0.00,,,0.18,homebrew,2013-03-01 05:00:00,
2013-02-28 21:05:00,52.0,-99.9,30.27,South,188,4.2,10.0,-999,0.00,,,0.18,homebrew,2013-03-01 05:05:00,
2013-02-28 21:10:00,52.1,-99.9,30.27,South,189,4.2,11.4,-999,0.00,,,0.18,homebrew,2013-03-01 05:10:00,
2013-02-28 21:15:00,52.2,-99.9,30.27,SSW,200,2.6,17.3,-999,0.00,,,0.18,homebrew,2013-03-01 05:15:00,
2013-02-28 21:20:00,52.1,-99.9,30.28,South,185,2.4,7.3,-999,0.00,,,0.18,homebrew,2013-03-01 05:20:00,
2013-02-28 21:30:00,52.0,-99.9,30.28,SSW,197,2.4,6.7,-999,0.00,,,0.18,homebrew,2013-03-01 05:30:00,
2013-02-28 21:35:00,52.0,-99.9,30.28,SSW,197,3.2,7.3,-999,0.00,,,0.18,homebrew,2013-03-01 05:35:00,
2013-02-28 21:40:00,52.0,-99.9,30.28,SSW,196,2.7,11.8,-999,0.00,,,0.18,homebrew,2013-03-01 05:40:00,
2013-02-28 21:45:00,51.9,-99.9,30.28,SSW,199,3.4,5.8,-999,0.00,,,0.18,homebrew,2013-03-01 05:45:00,
2013-02-28 21:50:00,51.8,-99.9,30.28,SSW,206,3.1,7.4,-999,0.00,,,0.18,homebrew,2013-03-01 05:50:00,
2013-02-28 21:55:00,51.8,-99.9,30.29,SSW,201,2.4,9.6,-999,0.00,,,0.18,homebrew,2013-03-01 05:55:00,
2013-02-28 22:05:00,51.7,-99.9,30.28,SSW,209,4.0,8.6,-999,0.00,,,0.18,homebrew,2013-03-01 06:05:00,
2013-02-28 22:10:00,51.7,-99.9,30.29,SW,222,3.8,10.6,-999,0.00,,,0.18,homebrew,2013-03-01 06:10:00,
2013-02-28 22:15:00,51.6,-99.9,30.29,SSW,199,3.4,13.0,-999,0.00,,,0.18,homebrew,2013-03-01 06:15:00,
2013-02-28 22:20:00,51.6,-99.9,30.29,SSW,206,4.2,11.1,-999,0.00,,,0.18,homebrew,2013-03-01 06:20:00,
2013-02-28 22:25:00,51.7,-99.9,30.29,SW,220,3.7,9.6,-999,0.00,,,0.18,homebrew,2013-03-01 06:25:00,
2013-02-28 22:30:00,51.7,-99.9,30.29,SSW,205,3.5,8.6,-999,0.00,,,0.18,homebrew,2013-03-01 06:30:00,
2013-02-28 22:35:00,51.6,-99.9,30.29,SSW,205,2.3,9.4,-999,0.00,,,0.18,homebrew,2013-03-01 06:35:00,
2013-02-28 22:40:00,51.6,-99.9,30.29,SSW,200,2.0,6.1,-999,0.00,,,0.18,homebrew,2013-03-01 06:40:00,
2013-02-28 22:45:00,51.6,-99.9,30.29,SSW,207,3.3,10.1,-999,0.00,,,0.18,homebrew,2013-03-01 06:45:00,
2013-02-28 22:50:00,51.7,-99.9,30.29,SSW,192,2.5,7.0,-999,0.00,,,0.18,homebrew,2013-03-01 06:50:00,
2013-02-28 22:55:00,51.7,-99.9,30.29,SW,214,2.0,8.6,-999,0.00,,,0.18,homebrew,2013-03-01 06:55:00,
2013-02-28 23:00:00,51.7,-99.9,30.29,SSW,199,3.3,6.8,-999,0.00,,,0.18,homebrew,2013-03-01 07:00:00,
2013-02-28 23:05:00,51.8,-99.9,30.30,SSW,207,3.8,7.4,-999,0.00,,,0.18,homebrew,2013-03-01 07:05:00,
2013-02-28 23:10:00,51.8,-99.9,30.29,SSW,208,3.5,8.0,-999,0.00,,,0.18,homebrew,2013-03-01 07:10:00,
2013-02-28 23:15:00,51.8,-99.9,30.29,SSW,202,2.2,8.5,-999,0.00,,,0.18,homebrew,2013-03-01 07:15:00,
2013-02-28 23:20:00,51.8,-99.9,30.29,SSW,203,1.9,4.5,-999,0.00,,,0.18,homebrew,2013-03-01 07:20:00,
2013-02-28 23:25:00,51.8,-99.9,30.28,South,187,2.3,9.1,-999,0.01,,,0.19,homebrew,2013-03-01 07:25:00,
2013-02-28 23:30:00,51.6,-99.9,30.29,South,189,1.9,9.3,-999,0.01,,,0.19,homebrew,2013-03-01 07:30:00,
2013-02-28 23:35:00,51.4,-99.9,30.28,SSE,165,1.1,7.5,-999,0.01,,,0.19,homebrew,2013-03-01 07:35:00,
2013-02-28 23:40:00,51.3,-99.9,30.29,South,186,1.3,5.5,-999,0.01,,,0.19,homebrew,2013-03-01 07:40:00,
2013-02-28 23:45:00,51.3,-99.9,30.29,South,187,0.8,5.0,-999,0.01,,,0.00,homebrew,2013-03-01 07:45:00,
2013-02-28 23:50:00,51.3,-99.9,30.29,SSW,196,2.3,5.3,-999,0.01,,,0.00,homebrew,2013-03-01 07:50:00,